Hourly Data Report for October 02, 2017

All times are specified in Local Standard Time (LST). Add 1 hour to adjust for Daylight Saving Time where and when it is observed.

THE PAS A
MANITOBA

53°58'17.000" N
101°05'28.000" W
270.60 m
5052881
71867
YQD

Download Data

Hourly Data (October 2017)
Hourly Data Report for October 2, 2017
Temp Definition
°C
Dew Point Temp Definition
°C
Rel Hum Definition
%
Wind Dir Definition
10's deg

Wind Spd Definition
km/h
Visibility Definition
km
Stn Press Definition
kPa
Hmdx Definition


Wind Chill Definition


Weather Definition


TIME
00:00 Legend Double Dagger 13.1 11.7 91 36 3 24.1 97.06     Cloudy
01:00 Legend Double Dagger 12.9 11.5 91 3 6 24.1 97.03     LegendNANA
02:00 Legend Double Dagger 12.9 11.7 92 2 7 24.1 97.01     LegendNANA
03:00 Legend Double Dagger 12.9 11.7 92 9 6 24.1 97.07     Cloudy
04:00 Legend Double Dagger 12.8 11.6 93 2 6 24.1 97.06     LegendNANA
05:00 Legend Double Dagger 12.9 11.8 93 5 5 24.1 97.12     LegendNANA
06:00 Legend Double Dagger 12.9 12.0 94 2 11 14.5 97.05     Drizzle
07:00 Legend Double Dagger 12.9 12.1 95 4 9 8.1 97.07     Fog
08:00 Legend Double Dagger 13.0 12.2 95 2 9 8.1 97.10     Fog
09:00 Legend Double Dagger 13.0 12.2 95 4 11 1.0 97.12     Fog
10:00 Legend Double Dagger 13.2 12.4 95 3 11 8.1 97.09     Fog
11:00 Legend Double Dagger 13.2 12.4 95 4 8 12.9 97.14     LegendNANA
12:00 Legend Double Dagger 13.3 12.5 95 4 8 3.2 97.12     Rain
13:00 Legend Double Dagger 13.3 12.6 96 4 12 2.4 97.13     Rain,Fog
14:00 Legend Double Dagger 13.2 12.5 95 2 20 4.8 97.10     Rain,Fog
15:00 Legend Double Dagger 12.7 11.9 95 1 22 6.4 97.11     Rain,Fog
16:00 Legend Double Dagger 11.9 10.8 93 1 25 6.4 97.16     Rain,Fog
17:00 Legend Double Dagger 11.1 9.8 92 1 32 6.4 97.23     Rain,Fog
18:00 Legend Double Dagger 10.3 9.1 92 1 28 6.4 97.32     Rain,Fog
19:00 Legend Double Dagger 9.3 7.9 91 1 27 8.1 97.46     Rain,Fog
20:00 Legend Double Dagger 7.8 6.3 90 1 37 6.4 97.56     Rain,Fog
21:00 Legend Double Dagger 7.1 5.5 89 1 35 8.1 97.66     Rain,Fog
22:00 Legend Double Dagger 6.5 5.1 90 1 28 8.1 97.80     Rain,Fog
23:00 Legend Double Dagger 6.1 4.7 91 1 27 8.1 97.95     Rain,Fog

Notes on Data Quality.

Legend

  • E = Estimated
  • M = Missing
  • NA = Not Available
  • ‡ = Partner data that is not subject to review by the National Climate Archives
Date modified: